Погода в Батне

Алжир     35°33′11″N   6°10′20″E
темп.,
°C
ветер,
м/с
пор.,
м/с
влажн.,
%
обл.,
%
осадки,
мм/ч
давл.,
гПа
погр.,
м
12 апреля, пн
пн1201:00+10ссв11805 0.3 101711
04:00+8св22946 0.0 101716
07:00+9св229870 0.0 101889
10:00+13св437155 0.0 1019737
13:00+15ссв435649 0.1 10181181
16:00+14ссв866180 0.3 1018987
19:00+11ссв468997 0.7 1020555
22:00+9св4493100 0.5 1023416
13 апреля, вт
вт1301:00+8ссв3390100 0.6 1023338
04:00+7ссв229080 0.0 1023217
07:00+7св218466 0.1 1024320
10:00+10з136650 0.0 1024946
13:00+15з45385 0.0 10211858
16:00+16з55365 0.0 10202082
19:00+13зюз3342100 0.0 102058
22:00+10всв1256100 0.0 102228
14 апреля, ср
ср1401:00+9ю1261100 0.0 102112
04:00+10юз4566100 0.0 1020103
07:00+11ююз476897 0.0 1020389
10:00+15юз9125091 0.0 10181079
13:00+18зюз8104262 0.0 10171305
16:00+17зюз7941100 0.1 10161205
19:00+13ю2451100 0.6 1017370
22:00+13ююз2254100 0.0 1018109
15 апреля, чт
чт1501:00+12ююз3356100 0.0 101662
04:00+11юз3458100 0.0 101560
07:00+12ю2256100 0.0 101596
10:00+16юз6941100 0.0 10141187
13:00+17ююв2645100 0.4 10121261
16:00+20юв4432100 0.0 10081456
19:00+15ююв3443100 0.1 100845
22:00+12всв44474 0.0 100828
16 апреля, пт
пт1601:00+9в457697 0.0 100594
04:00+7ссв339672 0.1 1003107
07:00+7св239067 0.1 1003198
10:00+11с326476 0.1 1001632
13:00+14с6557100 0.1 10011274
16:00+11ссз6876100 0.4 10031138
19:00+8с91384100 0.6 1006960
22:00+7с101496100 0.4 1010946